Regional Weather Roundup
Issued by NWS

Home | Current Version | Previous Version | Text Only | Print | Product List | Glossary Off
Versions: 1 2 3 4 5 6 7 8 9 10 11 12 13 14 15 16 17 18 19 20 21 22 23 24 25 26 27 28 29 30 31 32 33 34 35 36 37 38 39 40 41 42 43 44 45 46 47 48 49 50

000
ASUS43 KIND 300309
RWRIN

WEATHER ROUNDUP FOR INDIANA
NATIONAL WEATHER SERVICE INDIANAPOLIS IN
1100 PM EDT FRI MAY 29 2015

NOTE: "FAIR" INDICATES FEW OR NO CLOUDS BELOW 12,000 FEET WITH NO
SIGNIFICANT WEATHER AND/OR OBSTRUCTIONS TO VISIBILITY.

* - STATION DOES NOT REPORT WEATHER SUCH AS PRECIPITATION OR FOG.

+ - STATION NOT QUALITY CONTROLLED BY THE NATIONAL WEATHER SERVICE.
    USE DATA WITH CAUTION...ESPECIALLY DEWPOINT AND RELATIVE
    HUMIDITY OBSERVATIONS.

INZ001>003-010>013-019-020-300400-
NORTHWEST INDIANA

CITY           SKY/WX    TMP DP  RH WIND       PRES   REMARKS
GARY /AIRPORT/ MOCLDY    73  66  78 S9        29.95S
KNOX *+        MOCLDY    70  68  94 W5        29.98S
LA PORTE +     LGT RAIN  72  66  83 SW9       29.99R
MICHIGAN CITY+ CLOUDY    72  61  68 S8        29.97S
MONTICELLO +   LGT RAIN  75  66  74 SW6       30.00R
RENSSELAER +   CLOUDY    73  68  83 S8        29.98F
VALPARAISO     CLOUDY    71  65  81 SW13      29.98R

$$

LMZ046-743>745-300400-
SOUTHERN LAKE MICHIGAN

STATION/POSITION TIME  TEMP    WIND        PRES    WAVE
                       AIR SEA DIR/SP/G            HT
                 (UTC) (F)     (DEG/KT/KT) (MB)    (FT)
BURNS HARBOR     0300   72     190/ 12/ 14 1014.6S
MICHIGAN CITY    0300   73     170/ 13/ 16   N/A
5NW MICH CITY    0300   64 56  220/  8/ 10   N/A     1

$$

INZ004-005-014>016-021>024-300400-
NORTH CENTRAL INDIANA

CITY           SKY/WX    TMP DP  RH WIND       PRES   REMARKS
GOSHEN         PTCLDY    76  64  66 S13       29.98R
LOGANSPORT +   PTCLDY    73  61  64 S9        30.02R
PERU/GRISSOM   MOCLDY    75  65  71 S12       30.01R
ROCHESTER +    PTCLDY    79  64  61 S7        30.00S
SOUTH BEND     LGT RAIN  71  68  90 S13       29.99R

$$

INZ006>009-017-018-025>027-300400-
NORTHEAST INDIANA

CITY           SKY/WX    TMP DP  RH WIND       PRES   REMARKS
ANGOLA *+      CLEAR     77  70  78 S9        30.00R
FORT WAYNE     PTCLDY    75  63  66 SW10      30.03R
HUNTINGTON +   PTCLDY    74  63  68 S5        30.02R

$$

INZ028-029-035-036-043>045-051>053-300400-
WEST CENTRAL INDIANA

CITY           SKY/WX    TMP DP  RH WIND       PRES   REMARKS
CRAWFORDSVL +  PTCLDY    72  60  66 S9        30.03S
GREENCASTLE +  CLEAR     70  63  78 S7        30.06R
LAFAYETTE      MOCLDY    76  65  68 S8        30.00R
TERRE HAUTE    RAIN      70  66  87 SW7       30.04S FOG

$$

INZ030>032-037>040-046>048-054>057-064-065-300400-
CENTRAL INDIANA

CITY           SKY/WX    TMP DP  RH WIND       PRES   REMARKS
CP ATTERBURY + CLEAR     70  63  78 S5        30.06R
FISHERS *+     CLEAR     73  66  78 S7        30.05
FRANKFORT +    PTCLDY    74  65  74 S6        30.04S
GREENWOOD *+   CLEAR     73  63  68 S6        30.06R
INDIANAPOLIS   PTCLDY    73  64  73 S9        30.03R
-EAGLE CREEK   CLEAR     74  64  71 S7        30.04R
KOKOMO *+      CLEAR     75  64  69 SW12      30.03R
MARION +       CLEAR     73  62  66 S7        30.04R
MT COMFORT *+  CLEAR     73  57  56 S5        30.06R
SHELBYVILLE    CLEAR     75  65  70 S7        30.05R
ZIONSVILLE +   CLEAR     75  62  64 S8        30.06R

$$

INZ033-034-041-042-049-050-058-059-300400-
EAST CENTRAL INDIANA

CITY           SKY/WX    TMP DP  RH WIND       PRES   REMARKS
MUNCIE         CLEAR     75  63  66 MISG      30.05R

$$

INZ060-061-067>069-081>083-085>088-300400-
SOUTHWEST INDIANA

CITY           SKY/WX    TMP DP  RH WIND       PRES   REMARKS
EVANSVILLE     CLEAR     76  67  73 S5        30.05R
HUNTINGBURG *+ CLEAR     72  66  83 CALM      30.07R
WASHINGTON +   CLEAR     73  65  77 S6        30.04S

$$

INZ062-063-066-070>080-084-089>092-300400-
SOUTH CENTRAL AND SOUTHEAST INDIANA

CITY           SKY/WX    TMP DP  RH WIND       PRES   REMARKS
BLOOMINGTON    CLEAR     72  66  81 S6        30.06R
MADISON *+     MOCLDY    73  63  68 SE7       30.10S
NORTH VERNON + CLEAR     72  64  78 S3        30.08R
SEYMOUR +      PTCLDY    75  64  69 S8        30.06R

$$




USA.gov is the U.S. government's official web portal to all federal, state and local government web resources and services.